This demonstration page uses our WeatherBlox Daily Observations layout. Learn more.

Left ArrowRight Arrow

44.8408, -93.29828

Hourly Observations for December 16, 2017

Temp ( °F °C ) Dew Point ( °F °C ) Humidity (%) Winds ( mph kmh ) Pressure ( in mb ) Visibility ( mi km ) Precip ( " mm )
12:53 am 00:53 Mostly Cloudy 30 -1.1 29 -1.7 96 96 ESE 7 11 29.70 1006 9 14 0.00 0.00
1:53 am 01:53 Cloudy 31 -0.6 29 -1.7 92 92 ESE 9 15 29.68 1005 9 14 0.00 0.00
2:53 am 02:53 Cloudy 30 -1.1 29 -1.7 96 96 ESE 8 13 29.70 1006 10 16 0.00 0.00
3:53 am 03:53 Cloudy 28 -2.2 27 -2.8 96 96 E 7 11 29.72 1006 10 16 0.00 0.00
4:53 am 04:53 Mostly Cloudy 27 -2.8 26 -3.3 96 96 ENE 8 13 29.72 1006 9 14 0.00 0.00
5:53 am 05:53 Mostly Cloudy 27 -2.8 25 -3.9 92 92 ENE 7 11 29.74 1007 10 16 0.00 0.00
6:53 am 06:53 Mostly Clear 26 -3.3 24 -4.4 92 92 ENE 7 11 29.78 1009 8 13 0.00 0.00
7:27 am 07:27 Cloudy 26 -3.3 24 -4.4 92 92 NE 8 13 29.83 1010 7 11 0.00 0.00
7:42 am 07:42 Cloudy 26 -3.3 24 -4.4 92 92 NE 8 13 29.85 1011 7 11 0.00 0.00
7:53 am 07:53 Cloudy 25 -3.9 24 -4.4 96 96 ENE 8 13 29.82 1010 7 11 0.00 0.00
8:09 am 08:09 Cloudy with Mist and Fog 25 -3.9 24 -4.4 96 96 ENE 9 15 29.83 1010 6 10 0.00 0.00
8:53 am 08:53 Cloudy with Mist and Fog 25 -3.9 24 -4.4 96 96 ENE 6 9 29.85 1011 6 10 0.00 0.00
9:53 am 09:53 Cloudy with Mist and Fog 26 -3.3 25 -3.9 96 96 ENE 7 11 29.88 1012 6 10 0.00 0.00
10:12 am 10:12 Cloudy with Mist and Fog 27 -2.8 25 -3.9 92 92 ENE 7 11 29.91 1013 6 10 0.00 0.00
10:53 am 10:53 Cloudy 28 -2.2 25 -3.9 88 88 ENE 7 11 29.90 1013 7 11 0.00 0.00
11:29 am 11:29 Cloudy 28 -2.2 25 -3.9 88 88 E 7 11 29.94 1014 7 11 0.00 0.00
11:53 am 11:53 Cloudy 28 -2.2 25 -3.9 88 88 SE 3 6 29.92 1013 7 11 0.00 0.00
12:53 pm 12:53 Cloudy 28 -2.2 25 -3.9 88 88 ENE 5 7 29.93 1014 7 11 0.00 0.00
1:53 pm 13:53 Cloudy 29 -1.7 25 -3.9 85 85 NE 3 6 29.95 1014 8 13 0.00 0.00
2:53 pm 14:53 Cloudy with Haze 29 -1.7 24 -4.4 82 82 N 6 9 29.97 1015 6 10 0.00 0.00
3:35 pm 15:35 Cloudy 29 -1.7 24 -4.4 82 82 NE 3 6 30.00 1016 8 13 0.00 0.00
3:53 pm 15:53 Cloudy 29 -1.7 23 -5 78 78 Calm 30.03 1017 8 13 0.00 0.00
4:53 pm 16:53 Cloudy 28 -2.2 22 -5.6 78 78 ENE 9 15 30.03 1017 10 16 0.00 0.00
5:11 pm 17:11 Cloudy 28 -2.2 22 -5.6 78 78 ENE 9 15 30.03 1017 10 16 0.00 0.00
5:53 pm 17:53 Cloudy 27 -2.8 22 -5.6 81 81 E 7 11 30.06 1018 10 16 0.00 0.00
6:29 pm 18:29 Cloudy 26 -3.3 20 -6.7 78 78 E 6 9 30.12 1020 10 16 0.00 0.00
6:53 pm 18:53 Cloudy 26 -3.3 20 -6.7 78 78 E 7 11 30.09 1019 10 16 0.00 0.00
7:53 pm 19:53 Cloudy 26 -3.3 20 -6.7 78 78 ENE 6 9 30.11 1020 10 16 0.00 0.00
8:53 pm 20:53 Mostly Cloudy 26 -3.3 19 -7.2 75 75 E 7 11 30.13 1020 10 16 0.00 0.00
9:21 pm 21:21 Mostly Cloudy 25 -3.9 19 -7.2 78 78 ENE 6 9 30.18 1022 10 16 0.00 0.00
9:53 pm 21:53 Mostly Cloudy 25 -3.9 19 -7.2 78 78 ENE 3 6 30.15 1021 10 16 0.00 0.00
10:53 pm 22:53 Mostly Cloudy 23 -5 18 -7.8 81 81 ENE 5 7 30.15 1021 10 16 0.00 0.00
11:53 pm 23:53 Cloudy 23 -5 18 -7.8 81 81 NE 3 6 30.13 1020 10 16 0.00 0.00

Powered by AerisWeather